Preview of NWS' New Version of Forecast
This preview is not operational and should not be used for support decisions.

Regional Weather Roundup (RWR)

Issued by National Weather Service (NWS)

                            
000
ASUS45 KBOU 211210
RWRCO 

WEATHER ROUNDUP FOR COLORADO
NATIONAL WEATHER SERVICE DENVER/BOULDER CO
600 AM MDT SUN APR 21 2019

NOTE: "FAIR" INDICATES FEW OR NO CLOUDS BELOW 12000 FEET WITH NO
SIGNIFICANT WEATHER AND/OR OBSTRUCTIONS TO VISIBILITY.

COZ001>005-013-030-031-211300-
...NORTHWEST COLORADO...
  
CITY           SKY/WX    TMP DP  RH WIND       PRES   REMARKS
CRAIG          FAIR      32  29  88 CALM      29.87R                  
HAYDEN         FAIR      41  29  62 E9        29.89R                  
MEEKER         MOCLDY    44  31  60 SW8       29.87S                  
RANGELY        CLOUDY    45  33  64 SE9       29.83R                  
RABBIT EARS PA FAIR      34  23  64 W5        30.02S WCI  30          
STEAMBOAT SPGS FAIR      38  30  73 CALM      29.89S                  
WALDEN         FAIR      34  27  75 SE6       29.95R WCI  29          
$$

COZ006>008-011-211300-
...WEST CENTRAL VALLEYS...
  
CITY           SKY/WX    TMP DP  RH WIND       PRES   REMARKS
GRAND JUNCTION MOCLDY    51  34  52 E5        29.86R                  
MONTROSE       CLOUDY    50  32  50 E14       29.91R                  
EAGLE          FAIR      34  28  79 CALM      29.94S                  
RIFLE          MOCLDY    41  33  73 CALM      29.87R                  
DELTA          CLOUDY    50  33  53 E6        29.89R                  
NUCLA          CLOUDY    50  28  43 W7        29.94R                  
$$

COZ017>023-064>068-211300-
...SOUTHWEST COLORADO...
  
CITY           SKY/WX    TMP DP  RH WIND       PRES   REMARKS
DURANGO        LGT RAIN  42  30  62 VRB6      30.01R                  
CORTEZ         MOCLDY    44  31  60 SE8       29.93F                  
PAGOSA SPRINGS MOCLDY    33  32  95 CALM      30.03R                  
TELLURIDE      CLOUDY    37  32  81 CALM      30.05S                  
WOLF CREEK PAS FAIR      25  23  93 SW10      30.17R WCI  15          
$$

COZ009-010-012-014-032>034-037-058>063-211300-
...CENTRAL COLORADO...
  
CITY           SKY/WX    TMP DP  RH WIND       PRES   REMARKS
ASPEN          MOCLDY    36  25  64 S7        29.93R                  
BUENA VISTA    FAIR      30  24  77 W6        29.97S WCI  24          
COPPER MTN     FAIR      34  19  55 MISG      30.09R                  
BERTHOUD PASS  FAIR      27  16  63 NW21      30.09S WCI  13          
COTTONWOOD PAS FAIR      37  23  56 CALM      30.02S                  
GUNNISON       MOCLDY    29  27  92 CALM      30.03R                  
GRANBY         PTSUNNY   32  29  88 CALM      29.98R                  
KREMMLING      MOCLDY    36  32  87 E5        29.94S                  
LEADVILLE      FAIR      27  20  75 CALM      30.01R                  
MONARCH PASS   MOCLDY    30  23  74 SW20      30.20S WCI  18          
SALIDA         FAIR      38  27  63 CALM      30.04R                  
SUNLIGHT       MOCLDY    32  21  64 SW13G22   30.07S WCI  22          
WILKERSON PASS FAIR      32  19  59 W8        30.09S WCI  25          
$$

COZ069>075-211300-
...SAN LUIS VALLEY/SANGRE DE CRISTO MOUNTAINS...
  
CITY           SKY/WX    TMP DP  RH WIND       PRES   REMARKS
ALAMOSA        FAIR      29  26  89 CALM      29.98S                  
DEL NORTE      FAIR      32  24  72 W6        30.00S WCI  26          
LA VETA PASS   NOT AVBL                                               
SAGUACHE       MOCLDY    32  27  80 CALM      30.00S                  
$$

COZ035-036-038>040-211300-
...NORTHERN COLORADO FRONT RANGE...
  
CITY           SKY/WX    TMP DP  RH WIND       PRES   REMARKS
DENVER INTL AP MOCLDY    53  37  54 N12       29.81R                  
AURORA         MOCLDY    52  36  55 N8        29.83R                  
FRONT RANGE AP FAIR      53  37  54 NW9       29.82R                  
ERIE MUNI ARPT MOCLDY    57  33  39 CALM      29.85S                  
BOULDER MUN AP CLOUDY    55  34  44 S3        29.82R                  
CENTENNIAL     FAIR      53  32  44 N10       29.83R                  
BROOMFIELD     FAIR      55  32  41 NE3       29.83R                  
FORT COLLINS   FAIR      59  33  37 NE3       29.79F                  
LONGMONT       MOCLDY    59  33  37 NE5       29.81S                  
$$

COZ041-046-047-076>085-087-088-211300-
...PIKES PEAK/PALMER DIVIDE AND SOUTHERN FOOTHILLS...
  
CITY           SKY/WX    TMP DP  RH WIND       PRES   REMARKS
COLO. SPRINGS  FAIR      56  24  29 NW12G22   29.83R                  
A. F. ACADEMY  FAIR      52  23  32 N8        29.83R                  
SCHRIEVER AFB  NOT AVBL                                               
CHEYENNE MTN   FAIR      55  18  23 E5        29.80R                  
ELLICOTT         N/A    N/A N/A N/A N10       29.81R                  
FALCON         FAIR      48  22  35 NW12      29.86S                  
FORT CARSON    FAIR      52  25  34 N3        29.81R                  
LIMON          FAIR      46  32  58 W10       29.77R                  
MONUMENT HILL  FAIR      41  27  56 NW13      29.89R                  
CANON CITY     NOT AVBL                                               
WALSENBURG     NOT AVBL                                               
TRINIDAD       FAIR      46  25  43 W14       29.85S                  
$$

COZ042>045-048>051-090-091-211300-
...NORTHEAST COLORADO...
  
CITY           SKY/WX    TMP DP  RH WIND       PRES   REMARKS
GREELEY ARPT   LGT RAIN  59  37  44 W13       29.81R                  
AKRON          CLOUDY    55  39  54 N24       29.71R                  
BURLINGTON     FAIR      49  32  52 W12       29.67R                  
WRAY           FAIR      54  36  50 NW14      29.65R                  
YUMA           NOT AVBL                                               
STERLING       CLOUDY    57  43  58 NW16      29.71F                  
HOLYOKE        FAIR      54  43  66 N15       29.64F                  
FORT MORGAN    NOT AVBL                                               
$$

COZ086-089-092>099-211300-
...SOUTHEAST COLORADO...
  
CITY           SKY/WX    TMP DP  RH WIND       PRES   REMARKS
PUEBLO         FAIR      54  28  36 W10       29.76R                  
LA JUNTA       FAIR      53  30  41 W15       29.73S                  
LAMAR          FAIR      51  33  50 W13       29.69R                  
SPRINGFIELD      N/A     48  29  47 W8        29.75R                  
$$